Time,TemperatureF,DewpointF,PressureIn,WindDirection,WindDirectionDegrees,WindSpeedMPH,WindSpeedGustMPH,Humidity,HourlyPrecipIn,Conditions,Clouds,dailyrainin,SoftwareType,DateUTC
2013-01-14 00:00:00,58.5,53.7,30.05,WSW,248,0.0,0.0,84,0.00,,CLR,0.00,VWS V12.08,2013-01-14 05:00:00,
2013-01-14 00:01:00,58.5,53.7,30.05,WSW,248,0.0,0.0,84,0.00,,CLR,0.00,VWS V12.08,2013-01-14 05:01:00,
2013-01-14 00:03:00,58.5,53.7,30.05,WSW,248,0.0,0.0,84,0.00,,CLR,0.00,VWS V12.08,2013-01-14 05:03:00,
2013-01-14 00:08:00,58.5,53.7,30.05,WSW,248,0.0,0.0,84,0.00,,CLR,0.00,VWS V12.08,2013-01-14 05:08:00,
2013-01-14 00:13:00,58.3,53.8,30.04,ESE,112,0.0,0.0,85,0.00,,CLR,0.00,VWS V12.08,2013-01-14 05:13:00,
2013-01-14 00:19:00,58.5,54.0,30.04,NW,315,2.9,2.9,85,0.00,,CLR,0.00,VWS V12.08,2013-01-14 05:19:00,
2013-01-14 00:24:00,58.5,54.0,30.05,North,0,0.0,0.0,85,0.00,,CLR,0.00,VWS V12.08,2013-01-14 05:24:00,
2013-01-14 00:29:00,58.8,54.7,30.05,NNW,338,0.0,0.0,86,0.00,,CLR,0.00,VWS V12.08,2013-01-14 05:29:00,
2013-01-14 00:34:00,58.8,54.7,30.04,NW,315,0.0,0.0,86,0.00,,CLR,0.00,VWS V12.08,2013-01-14 05:34:00,
2013-01-14 00:39:00,58.8,54.7,30.05,NW,315,0.0,0.0,86,0.00,,CLR,0.00,VWS V12.08,2013-01-14 05:39:00,
2013-01-14 00:44:00,58.8,54.7,30.04,SSW,202,0.0,0.0,86,0.00,,CLR,0.00,VWS V12.08,2013-01-14 05:44:00,
2013-01-14 00:49:00,59.2,55.0,30.05,SE,135,0.0,0.0,86,0.00,,CLR,0.00,VWS V12.08,2013-01-14 05:49:00,
2013-01-14 00:54:00,59.4,55.2,30.05,SE,135,0.0,0.0,86,0.00,,CLR,0.00,VWS V12.08,2013-01-14 05:54:00,
2013-01-14 00:59:00,59.7,55.5,30.06,SE,135,0.0,0.0,86,0.00,,CLR,0.00,VWS V12.08,2013-01-14 05:59:00,
2013-01-14 01:04:00,59.7,55.5,30.06,SE,135,0.0,0.0,86,0.00,,CLR,0.00,VWS V12.08,2013-01-14 06:04:00,
2013-01-14 01:09:00,59.7,55.5,30.06,SE,135,0.0,0.0,86,0.00,,CLR,0.00,VWS V12.08,2013-01-14 06:09:00,
2013-01-14 01:14:00,59.5,55.3,30.06,NW,315,0.0,0.0,86,0.00,,CLR,0.00,VWS V12.08,2013-01-14 06:14:00,
2013-01-14 01:19:00,59.5,55.3,30.06,NW,315,0.0,0.0,86,0.00,,CLR,0.00,VWS V12.08,2013-01-14 06:19:00,
2013-01-14 01:24:00,59.5,55.3,30.06,NW,315,0.0,0.0,86,0.02,,CLR,0.02,VWS V12.08,2013-01-14 06:24:00,
2013-01-14 01:29:00,59.4,55.2,30.06,West,270,0.0,0.0,86,0.02,,CLR,0.02,VWS V12.08,2013-01-14 06:29:00,
2013-01-14 01:34:00,59.2,55.3,30.06,SSW,202,6.3,6.3,87,0.02,,CLR,0.02,VWS V12.08,2013-01-14 06:34:00,
2013-01-14 01:39:00,59.2,55.3,30.06,SE,135,0.0,6.3,87,0.02,,CLR,0.02,VWS V12.08,2013-01-14 06:39:00,
2013-01-14 01:44:00,59.2,55.3,30.06,SE,135,0.0,0.0,87,0.02,,CLR,0.02,VWS V12.08,2013-01-14 06:44:00,
2013-01-14 01:49:00,60.1,56.2,30.06,SE,135,0.0,0.0,87,0.02,,CLR,0.02,VWS V12.08,2013-01-14 06:49:00,
2013-01-14 01:54:00,60.8,57.2,30.06,SSE,158,0.0,1.8,88,0.02,,CLR,0.02,VWS V12.08,2013-01-14 06:54:00,
2013-01-14 01:59:00,61.2,57.6,30.06,SE,135,0.0,1.8,88,0.02,,CLR,0.02,VWS V12.08,2013-01-14 06:59:00,
2013-01-14 02:04:00,61.2,57.6,30.06,ESE,112,2.9,2.9,88,0.02,,CLR,0.02,VWS V12.08,2013-01-14 07:04:00,
2013-01-14 02:09:00,61.7,58.1,30.06,SW,225,0.0,2.9,88,0.02,,CLR,0.02,VWS V12.08,2013-01-14 07:09:00,
2013-01-14 02:14:00,61.7,58.1,30.06,SW,225,0.0,2.9,88,0.02,,CLR,0.02,VWS V12.08,2013-01-14 07:14:00,
2013-01-14 02:19:00,62.1,58.2,30.07,NNE,22,0.0,2.9,87,0.02,,CLR,0.02,VWS V12.08,2013-01-14 07:19:00,
2013-01-14 02:24:00,62.1,58.2,30.07,NNE,22,0.0,0.0,87,0.00,,CLR,0.02,VWS V12.08,2013-01-14 07:24:00,
2013-01-14 02:29:00,62.1,57.8,30.07,SW,225,0.0,0.0,86,0.00,,CLR,0.02,VWS V12.08,2013-01-14 07:29:00,
2013-01-14 02:34:00,62.2,58.0,30.07,SSW,202,1.1,1.1,86,0.00,,CLR,0.02,VWS V12.08,2013-01-14 07:34:00,
2013-01-14 02:39:00,62.1,57.8,30.07,NE,45,0.0,1.1,86,0.00,,CLR,0.02,VWS V12.08,2013-01-14 07:39:00,
2013-01-14 02:44:00,62.1,57.8,30.07,South,180,0.0,0.0,86,0.00,,CLR,0.02,VWS V12.08,2013-01-14 07:44:00,
2013-01-14 02:49:00,62.1,57.8,30.07,SSW,202,0.0,0.0,86,0.00,,CLR,0.02,VWS V12.08,2013-01-14 07:49:00,
2013-01-14 02:54:00,62.2,57.7,30.06,SE,135,0.0,3.6,85,0.00,,CLR,0.02,VWS V12.08,2013-01-14 07:54:00,
2013-01-14 02:59:00,62.2,57.7,30.06,ESE,112,1.1,3.6,85,0.00,,CLR,0.02,VWS V12.08,2013-01-14 07:59:00,
2013-01-14 03:04:00,62.1,57.5,30.07,SSW,202,0.0,1.3,85,0.00,,CLR,0.02,VWS V12.08,2013-01-14 08:04:00,
2013-01-14 03:09:00,61.9,57.3,30.07,SSW,202,0.0,1.3,85,0.00,,CLR,0.02,VWS V12.08,2013-01-14 08:09:00,
2013-01-14 03:14:00,61.9,57.3,30.07,SSW,202,0.9,1.3,85,0.00,,CLR,0.02,VWS V12.08,2013-01-14 08:14:00,
2013-01-14 03:19:00,61.9,57.3,30.07,SSE,158,0.0,1.3,85,0.00,,CLR,0.02,VWS V12.08,2013-01-14 08:19:00,
2013-01-14 03:24:00,61.9,57.3,30.07,SSE,158,0.0,0.0,85,0.00,,CLR,0.02,VWS V12.08,2013-01-14 08:24:00,
2013-01-14 03:29:00,61.9,57.3,30.06,SSE,158,0.0,0.0,85,0.00,,CLR,0.02,VWS V12.08,2013-01-14 08:29:00,
2013-01-14 03:34:00,61.5,57.0,30.06,SE,135,1.3,1.3,85,0.00,,CLR,0.02,VWS V12.08,2013-01-14 08:34:00,
2013-01-14 03:39:00,61.5,57.0,30.05,South,180,3.1,3.1,85,0.00,,CLR,0.02,VWS V12.08,2013-01-14 08:39:00,
2013-01-14 03:44:00,61.5,57.0,30.06,South,180,3.1,3.1,85,0.00,,CLR,0.02,VWS V12.08,2013-01-14 08:44:00,
2013-01-14 03:50:00,61.3,56.8,30.06,South,180,0.0,4.9,85,0.00,,CLR,0.02,VWS V12.08,2013-01-14 08:50:00,
2013-01-14 03:55:00,61.3,56.8,30.05,South,180,0.0,4.9,85,0.00,,CLR,0.02,VWS V12.08,2013-01-14 08:55:00,
2013-01-14 04:00:00,61.3,56.8,30.05,SSE,158,0.0,4.9,85,0.00,,CLR,0.02,VWS V12.08,2013-01-14 09:00:00,
2013-01-14 04:05:00,61.3,56.8,30.05,SSE,158,1.1,1.1,85,0.00,,CLR,0.02,VWS V12.08,2013-01-14 09:05:00,
2013-01-14 04:10:00,61.3,56.8,30.05,ESE,112,0.0,1.1,85,0.00,,CLR,0.02,VWS V12.08,2013-01-14 09:10:00,
2013-01-14 04:15:00,61.3,56.8,30.04,South,180,0.0,1.8,85,0.00,,CLR,0.02,VWS V12.08,2013-01-14 09:15:00,
2013-01-14 04:20:00,61.2,56.6,30.04,SSW,202,0.0,1.8,85,0.00,,CLR,0.02,VWS V12.08,2013-01-14 09:20:00,
2013-01-14 04:25:00,61.2,56.6,30.04,SE,135,0.0,0.0,85,0.00,,CLR,0.02,VWS V12.08,2013-01-14 09:25:00,
2013-01-14 04:30:00,61.2,56.6,30.04,SE,135,4.0,4.0,85,0.00,,CLR,0.02,VWS V12.08,2013-01-14 09:30:00,
2013-01-14 04:35:00,61.3,56.8,30.03,East,90,0.0,4.0,85,0.00,,CLR,0.02,VWS V12.08,2013-01-14 09:35:00,
2013-01-14 04:40:00,61.3,56.8,30.04,SE,135,2.0,4.0,85,0.00,,CLR,0.02,VWS V12.08,2013-01-14 09:40:00,
2013-01-14 04:45:00,61.3,56.8,30.04,SSE,158,0.0,2.0,85,0.00,,CLR,0.02,VWS V12.08,2013-01-14 09:45:00,
2013-01-14 04:50:00,61.3,56.5,30.03,SE,135,0.0,2.0,84,0.00,,CLR,0.02,VWS V12.08,2013-01-14 09:50:00,
2013-01-14 04:55:00,61.3,56.5,30.03,SSW,202,5.6,5.6,84,0.00,,CLR,0.02,VWS V12.08,2013-01-14 09:55:00,
2013-01-14 05:00:00,61.3,56.8,30.03,SSE,158,0.0,5.6,85,0.02,,CLR,0.04,VWS V12.08,2013-01-14 10:00:00,
2013-01-14 05:05:00,61.2,56.6,30.03,SE,135,0.0,0.0,85,0.02,,CLR,0.04,VWS V12.08,2013-01-14 10:05:00,
2013-01-14 05:10:00,61.2,56.6,30.03,SE,135,0.0,0.0,85,0.02,,CLR,0.04,VWS V12.08,2013-01-14 10:10:00,
2013-01-14 05:15:00,61.2,56.6,30.03,SSW,202,2.5,2.5,85,0.02,,CLR,0.04,VWS V12.08,2013-01-14 10:15:00,
2013-01-14 05:20:00,61.2,56.6,30.04,South,180,0.0,0.0,85,0.02,,CLR,0.04,VWS V12.08,2013-01-14 10:20:00,
2013-01-14 05:25:00,61.2,56.6,30.03,SE,135,0.0,0.0,85,0.02,,CLR,0.04,VWS V12.08,2013-01-14 10:25:00,
2013-01-14 05:30:00,61.3,56.8,30.04,South,180,0.9,0.9,85,0.02,,CLR,0.04,VWS V12.08,2013-01-14 10:30:00,
2013-01-14 05:35:00,61.3,56.8,30.04,SSE,158,0.0,0.9,85,0.02,,CLR,0.04,VWS V12.08,2013-01-14 10:35:00,
2013-01-14 05:40:00,61.2,56.6,30.04,SSE,158,0.0,0.9,85,0.02,,CLR,0.04,VWS V12.08,2013-01-14 10:40:00,
2013-01-14 05:45:00,61.2,56.6,30.04,SSE,158,0.0,0.0,85,0.02,,CLR,0.04,VWS V12.08,2013-01-14 10:45:00,
2013-01-14 05:50:00,61.0,56.5,30.03,SE,135,0.0,0.0,85,0.02,,CLR,0.04,VWS V12.08,2013-01-14 10:50:00,
2013-01-14 05:55:00,61.0,56.5,30.04,SSE,158,0.0,0.0,85,0.02,,CLR,0.04,VWS V12.08,2013-01-14 10:55:00,
2013-01-14 06:00:00,61.0,56.5,30.04,SSE,158,0.0,0.0,85,0.00,,CLR,0.04,VWS V12.08,2013-01-14 11:00:00,
2013-01-14 06:05:00,60.8,56.3,30.04,SSE,158,0.0,0.0,85,0.00,,CLR,0.04,VWS V12.08,2013-01-14 11:05:00,
2013-01-14 06:10:00,60.8,56.6,30.04,SSW,202,0.0,0.0,86,0.00,,CLR,0.04,VWS V12.08,2013-01-14 11:10:00,
2013-01-14 06:15:00,61.0,56.8,30.04,East,90,0.0,0.0,86,0.00,,CLR,0.04,VWS V12.08,2013-01-14 11:15:00,
2013-01-14 06:20:00,61.0,56.8,30.04,SE,135,0.0,0.0,86,0.00,,CLR,0.04,VWS V12.08,2013-01-14 11:20:00,
2013-01-14 06:25:00,61.0,56.8,30.04,South,180,0.0,0.0,86,0.00,,CLR,0.04,VWS V12.08,2013-01-14 11:25:00,
2013-01-14 06:30:00,61.0,56.8,30.04,South,180,0.0,0.0,86,0.00,,CLR,0.04,VWS V12.08,2013-01-14 11:30:00,
2013-01-14 06:35:00,60.6,56.4,30.04,SSE,158,0.0,0.0,86,0.00,,CLR,0.04,VWS V12.08,2013-01-14 11:35:00,
2013-01-14 06:40:00,60.6,56.4,30.04,SSE,158,0.0,0.0,86,0.00,,CLR,0.04,VWS V12.08,2013-01-14 11:40:00,
2013-01-14 06:45:00,60.6,56.4,30.05,SSE,158,0.0,0.0,86,0.00,,CLR,0.04,VWS V12.08,2013-01-14 11:45:00,
2013-01-14 06:50:00,60.6,56.4,30.04,SE,135,0.0,0.0,86,0.00,,CLR,0.04,VWS V12.08,2013-01-14 11:50:00,
2013-01-14 06:55:00,60.6,56.7,30.05,South,180,0.0,0.0,87,0.00,,CLR,0.04,VWS V12.08,2013-01-14 11:55:00,
2013-01-14 07:00:00,60.6,56.7,30.05,South,180,0.0,0.0,87,0.00,,CLR,0.04,VWS V12.08,2013-01-14 12:00:00,
2013-01-14 07:05:00,60.6,56.7,30.05,SSE,158,0.0,0.9,87,0.00,,CLR,0.04,VWS V12.08,2013-01-14 12:05:00,
2013-01-14 07:10:00,60.6,56.7,30.05,SSW,202,4.3,4.3,87,0.00,,CLR,0.04,VWS V12.08,2013-01-14 12:10:00,
2013-01-14 07:15:00,60.6,56.7,30.05,SSW,202,4.3,4.3,87,0.00,,CLR,0.04,VWS V12.08,2013-01-14 12:15:00,
2013-01-14 07:20:00,60.6,56.7,30.06,SSE,158,0.0,0.0,87,0.00,,CLR,0.04,VWS V12.08,2013-01-14 12:20:00,
2013-01-14 07:25:00,60.6,56.7,30.06,SSE,158,0.0,0.0,87,0.00,,CLR,0.04,VWS V12.08,2013-01-14 12:25:00,
2013-01-14 07:30:00,60.6,56.7,30.06,South,180,0.0,0.0,87,0.00,,CLR,0.04,VWS V12.08,2013-01-14 12:30:00,
2013-01-14 07:35:00,60.6,56.7,30.06,SE,135,0.0,2.0,87,0.00,,CLR,0.04,VWS V12.08,2013-01-14 12:35:00,
2013-01-14 07:40:00,60.6,56.7,30.06,SSE,158,0.7,0.7,87,0.00,,CLR,0.04,VWS V12.08,2013-01-14 12:40:00,
2013-01-14 07:45:00,60.6,56.7,30.06,SE,135,0.0,0.7,87,0.00,,CLR,0.04,VWS V12.08,2013-01-14 12:45:00,
2013-01-14 07:50:00,60.6,56.7,30.06,South,180,0.0,0.9,87,0.00,,CLR,0.04,VWS V12.08,2013-01-14 12:50:00,
2013-01-14 07:55:00,60.6,56.7,30.06,SSE,158,0.0,0.9,87,0.00,,CLR,0.04,VWS V12.08,2013-01-14 12:55:00,
2013-01-14 08:00:00,60.6,56.7,30.06,SSW,202,0.0,0.0,87,0.00,,CLR,0.04,VWS V12.08,2013-01-14 13:00:00,
2013-01-14 08:05:00,61.0,57.1,30.06,South,180,0.0,0.0,87,0.00,,CLR,0.04,VWS V12.08,2013-01-14 13:05:00,
2013-01-14 08:10:00,61.0,57.1,30.06,South,180,0.0,0.0,87,0.00,,CLR,0.04,VWS V12.08,2013-01-14 13:10:00,
2013-01-14 08:15:00,61.0,57.1,30.07,South,180,0.0,0.0,87,0.00,,CLR,0.04,VWS V12.08,2013-01-14 13:15:00,
2013-01-14 08:20:00,61.0,57.1,30.07,ESE,112,0.0,0.0,87,0.00,,CLR,0.04,VWS V12.08,2013-01-14 13:20:00,
2013-01-14 08:25:00,61.0,57.1,30.07,ESE,112,0.0,0.0,87,0.00,,CLR,0.04,VWS V12.08,2013-01-14 13:25:00,
2013-01-14 08:30:00,61.0,57.1,30.08,ESE,112,0.0,0.0,87,0.00,,CLR,0.04,VWS V12.08,2013-01-14 13:30:00,
2013-01-14 08:35:00,60.6,57.0,30.07,SE,135,0.0,0.0,88,0.00,,CLR,0.04,VWS V12.08,2013-01-14 13:35:00,
2013-01-14 08:40:00,60.8,57.2,30.08,ESE,112,0.0,0.0,88,0.00,,CLR,0.04,VWS V12.08,2013-01-14 13:40:00,
2013-01-14 08:45:00,60.6,57.0,30.08,ESE,112,0.0,0.0,88,0.00,,CLR,0.04,VWS V12.08,2013-01-14 13:45:00,
2013-01-14 08:50:00,60.6,57.0,30.08,SE,135,0.0,0.0,88,0.00,,CLR,0.04,VWS V12.08,2013-01-14 13:50:00,
2013-01-14 08:55:00,60.6,57.0,30.07,ESE,112,0.0,0.0,88,0.00,,CLR,0.04,VWS V12.08,2013-01-14 13:55:00,
2013-01-14 09:00:00,60.6,57.0,30.08,SE,135,0.0,0.0,88,0.00,,CLR,0.04,VWS V12.08,2013-01-14 14:00:00,
2013-01-14 09:05:00,60.6,57.0,30.08,SE,135,0.0,0.0,88,0.00,,CLR,0.04,VWS V12.08,2013-01-14 14:05:00,
2013-01-14 09:10:00,60.8,57.2,30.08,SE,135,0.0,0.0,88,0.00,,CLR,0.04,VWS V12.08,2013-01-14 14:10:00,
2013-01-14 09:15:00,61.0,57.4,30.08,SE,135,0.0,0.0,88,0.00,,CLR,0.04,VWS V12.08,2013-01-14 14:15:00,
2013-01-14 09:20:00,61.2,57.6,30.08,SSE,158,0.4,0.4,88,0.00,,CLR,0.04,VWS V12.08,2013-01-14 14:20:00,
2013-01-14 09:25:00,61.0,57.4,30.08,SSE,158,0.4,0.4,88,0.00,,CLR,0.04,VWS V12.08,2013-01-14 14:25:00,
2013-01-14 09:30:00,61.0,57.4,30.09,South,180,1.3,1.3,88,0.00,,CLR,0.04,VWS V12.08,2013-01-14 14:30:00,
2013-01-14 09:35:00,61.2,57.6,30.08,ESE,112,1.6,1.6,88,0.00,,CLR,0.04,VWS V12.08,2013-01-14 14:35:00,
2013-01-14 09:40:00,61.2,57.6,30.09,SE,135,0.0,0.0,88,0.00,,CLR,0.04,VWS V12.08,2013-01-14 14:40:00,
2013-01-14 09:45:00,61.2,57.6,30.08,SSE,158,0.0,0.0,88,0.00,,CLR,0.04,VWS V12.08,2013-01-14 14:45:00,
2013-01-14 09:50:00,61.3,57.8,30.08,SSE,158,0.0,0.0,88,0.02,,CLR,0.06,VWS V12.08,2013-01-14 14:50:00,
2013-01-14 09:55:00,61.5,57.9,30.09,SSE,158,0.0,0.0,88,0.02,,CLR,0.06,VWS V12.08,2013-01-14 14:55:00,
2013-01-14 10:00:00,61.7,58.1,30.09,WSW,248,0.0,0.0,88,0.02,,CLR,0.06,VWS V12.08,2013-01-14 15:00:00,
2013-01-14 10:05:00,61.9,58.3,30.09,WSW,248,0.0,0.0,88,0.02,,CLR,0.06,VWS V12.08,2013-01-14 15:05:00,
2013-01-14 10:10:00,61.9,58.3,30.09,SSE,158,0.0,0.0,88,0.02,,CLR,0.06,VWS V12.08,2013-01-14 15:10:00,
2013-01-14 10:15:00,61.9,58.3,30.09,South,180,0.0,0.0,88,0.02,,CLR,0.06,VWS V12.08,2013-01-14 15:15:00,
2013-01-14 10:20:00,62.1,58.5,30.09,South,180,0.0,0.0,88,0.04,,CLR,0.09,VWS V12.08,2013-01-14 15:20:00,
2013-01-14 10:25:00,62.1,58.5,30.10,South,180,0.0,0.0,88,0.06,,CLR,0.11,VWS V12.08,2013-01-14 15:25:00,
2013-01-14 10:30:00,62.1,58.5,30.10,NW,315,0.0,0.0,88,0.06,,CLR,0.11,VWS V12.08,2013-01-14 15:30:00,
2013-01-14 10:35:00,62.1,58.5,30.10,NW,315,0.0,0.0,88,0.06,,CLR,0.11,VWS V12.08,2013-01-14 15:35:00,
2013-01-14 10:40:00,62.1,58.5,30.10,NW,315,0.0,0.0,88,0.06,,CLR,0.11,VWS V12.08,2013-01-14 15:40:00,
2013-01-14 10:45:00,61.9,58.3,30.09,NW,315,0.0,0.0,88,0.04,,CLR,0.11,VWS V12.08,2013-01-14 15:45:00,
2013-01-14 10:50:00,61.9,58.3,30.09,NW,315,0.0,0.0,88,0.06,,CLR,0.13,VWS V12.08,2013-01-14 15:50:00,
2013-01-14 10:55:00,61.9,58.3,30.09,NW,315,0.0,0.0,88,0.06,,CLR,0.13,VWS V12.08,2013-01-14 15:55:00,
2013-01-14 11:00:00,61.9,58.3,30.09,NW,315,0.0,0.0,88,0.06,,CLR,0.13,VWS V12.08,2013-01-14 16:00:00,
2013-01-14 11:05:00,61.9,58.3,30.09,NW,315,0.0,0.0,88,0.11,,CLR,0.17,VWS V12.08,2013-01-14 16:05:00,
2013-01-14 11:10:00,61.7,58.1,30.09,NW,315,0.0,0.0,88,0.11,,CLR,0.17,VWS V12.08,2013-01-14 16:10:00,
2013-01-14 11:15:00,61.5,57.9,30.08,NW,315,0.0,0.0,88,0.11,,CLR,0.17,VWS V12.08,2013-01-14 16:15:00,
2013-01-14 11:20:00,61.5,57.9,30.09,NW,315,0.0,0.0,88,0.06,,CLR,0.17,VWS V12.08,2013-01-14 16:20:00,
2013-01-14 11:25:00,61.5,57.9,30.09,NW,315,0.0,0.0,88,0.09,,CLR,0.19,VWS V12.08,2013-01-14 16:25:00,
2013-01-14 11:30:00,61.7,58.1,30.08,NW,315,0.0,0.0,88,0.09,,CLR,0.22,VWS V12.08,2013-01-14 16:30:00,
2013-01-14 11:35:00,61.7,58.1,30.08,North,0,0.0,0.0,88,0.11,,CLR,0.22,VWS V12.08,2013-01-14 16:35:00,
2013-01-14 11:40:00,61.7,58.1,30.08,WNW,292,0.0,0.0,88,0.11,,CLR,0.22,VWS V12.08,2013-01-14 16:40:00,
2013-01-14 11:46:00,61.9,58.6,30.08,WNW,292,0.0,0.0,89,0.09,,CLR,0.22,VWS V12.08,2013-01-14 16:46:00,
2013-01-14 11:51:00,61.7,58.4,30.07,WNW,292,0.0,0.0,89,0.11,,CLR,0.24,VWS V12.08,2013-01-14 16:51:00,
2013-01-14 11:56:00,61.9,58.6,30.07,WNW,292,0.0,0.0,89,0.11,,CLR,0.24,VWS V12.08,2013-01-14 16:56:00,
2013-01-14 12:01:00,62.1,58.8,30.07,WNW,292,0.0,0.0,89,0.09,,CLR,0.24,VWS V12.08,2013-01-14 17:01:00,
2013-01-14 12:06:00,62.1,58.8,30.07,WNW,292,0.0,0.0,89,0.06,,CLR,0.24,VWS V12.08,2013-01-14 17:06:00,
2013-01-14 12:11:00,62.2,59.0,30.06,WNW,292,0.0,0.0,89,0.09,,CLR,0.26,VWS V12.08,2013-01-14 17:11:00,
2013-01-14 12:16:00,62.2,59.0,30.06,WNW,292,0.0,0.0,89,0.09,,CLR,0.26,VWS V12.08,2013-01-14 17:16:00,
2013-01-14 12:21:00,62.4,59.1,30.06,WNW,292,0.0,0.0,89,0.06,,CLR,0.26,VWS V12.08,2013-01-14 17:21:00,
2013-01-14 12:26:00,62.4,59.1,30.06,WNW,292,0.0,0.0,89,0.09,,CLR,0.28,VWS V12.08,2013-01-14 17:26:00,
2013-01-14 12:31:00,62.4,59.1,30.06,WNW,292,0.0,0.0,89,0.06,,CLR,0.28,VWS V12.08,2013-01-14 17:31:00,
2013-01-14 12:36:00,63.1,59.8,30.06,WNW,292,0.0,0.0,89,0.06,,CLR,0.28,VWS V12.08,2013-01-14 17:36:00,
2013-01-14 12:41:00,63.0,59.7,30.05,WNW,292,0.0,0.0,89,0.06,,CLR,0.28,VWS V12.08,2013-01-14 17:41:00,
2013-01-14 12:46:00,63.0,59.7,30.04,NW,315,0.0,0.0,89,0.04,,CLR,0.28,VWS V12.08,2013-01-14 17:46:00,
2013-01-14 12:51:00,62.8,59.5,30.04,WNW,292,0.0,0.0,89,0.04,,CLR,0.28,VWS V12.08,2013-01-14 17:51:00,
2013-01-14 12:56:00,62.8,59.5,30.04,WNW,292,0.0,0.0,89,0.04,,CLR,0.28,VWS V12.08,2013-01-14 17:56:00,
2013-01-14 13:01:00,63.0,59.7,30.04,WNW,292,0.0,0.0,89,0.04,,CLR,0.28,VWS V12.08,2013-01-14 18:01:00,
2013-01-14 13:06:00,63.0,59.7,30.04,WNW,292,0.0,0.0,89,0.02,,CLR,0.28,VWS V12.08,2013-01-14 18:06:00,
2013-01-14 13:11:00,63.1,59.8,30.04,WNW,292,0.0,0.0,89,0.02,,CLR,0.28,VWS V12.08,2013-01-14 18:11:00,
2013-01-14 13:16:00,63.0,59.7,30.04,WNW,292,0.0,0.0,89,0.02,,CLR,0.28,VWS V12.08,2013-01-14 18:16:00,
2013-01-14 13:21:00,63.0,59.7,30.04,WNW,292,0.0,0.0,89,0.02,,CLR,0.28,VWS V12.08,2013-01-14 18:21:00,
2013-01-14 13:26:00,63.0,59.7,30.04,WNW,292,0.0,0.0,89,0.00,,CLR,0.28,VWS V12.08,2013-01-14 18:26:00,
2013-01-14 13:31:00,63.0,59.7,30.03,WNW,292,0.0,0.0,89,0.00,,CLR,0.28,VWS V12.08,2013-01-14 18:31:00,
2013-01-14 13:36:00,63.1,59.8,30.03,North,0,0.0,0.0,89,0.00,,CLR,0.28,VWS V12.08,2013-01-14 18:36:00,
2013-01-14 13:41:00,63.1,59.8,30.03,North,0,0.0,0.0,89,0.02,,CLR,0.30,VWS V12.08,2013-01-14 18:41:00,
2013-01-14 13:46:00,63.3,60.0,30.04,North,0,0.0,0.0,89,0.02,,CLR,0.30,VWS V12.08,2013-01-14 18:46:00,
2013-01-14 13:51:00,63.3,60.0,30.03,NNE,22,0.0,0.0,89,0.02,,CLR,0.30,VWS V12.08,2013-01-14 18:51:00,
2013-01-14 13:56:00,63.3,60.0,30.03,NNE,22,0.0,0.0,89,0.02,,CLR,0.30,VWS V12.08,2013-01-14 18:56:00,
2013-01-14 14:01:00,63.1,59.8,30.04,NNW,338,0.0,0.0,89,0.02,,CLR,0.30,VWS V12.08,2013-01-14 19:01:00,
2013-01-14 14:06:00,63.1,59.8,30.04,NNW,338,0.0,0.0,89,0.02,,CLR,0.30,VWS V12.08,2013-01-14 19:06:00,
2013-01-14 14:11:00,63.1,59.8,30.04,NNW,338,0.0,0.0,89,0.02,,CLR,0.30,VWS V12.08,2013-01-14 19:11:00,
2013-01-14 14:16:00,63.1,59.8,30.04,NW,315,0.0,0.0,89,0.02,,CLR,0.30,VWS V12.08,2013-01-14 19:16:00,
2013-01-14 14:21:00,63.0,59.7,30.04,NW,315,0.0,0.0,89,0.02,,CLR,0.30,VWS V12.08,2013-01-14 19:21:00,
2013-01-14 14:26:00,63.0,59.7,30.04,NW,315,0.0,0.0,89,0.02,,CLR,0.30,VWS V12.08,2013-01-14 19:26:00,
2013-01-14 14:31:00,62.8,59.5,30.04,NW,315,0.0,0.0,89,0.02,,CLR,0.30,VWS V12.08,2013-01-14 19:31:00,
2013-01-14 14:36:00,62.8,59.5,30.04,NW,315,0.0,3.1,89,0.00,,CLR,0.30,VWS V12.08,2013-01-14 19:36:00,
2013-01-14 14:41:00,62.8,59.5,30.04,NW,315,0.0,0.0,89,0.02,,CLR,0.32,VWS V12.08,2013-01-14 19:41:00,
2013-01-14 14:46:00,62.8,59.5,30.04,NW,315,0.0,0.0,89,0.02,,CLR,0.32,VWS V12.08,2013-01-14 19:46:00,
2013-01-14 14:51:00,62.4,59.1,30.04,NW,315,0.0,0.0,89,0.02,,CLR,0.32,VWS V12.08,2013-01-14 19:51:00,
2013-01-14 14:56:00,62.4,59.1,30.04,NW,315,0.0,0.0,89,0.02,,CLR,0.32,VWS V12.08,2013-01-14 19:56:00,
2013-01-14 15:01:00,62.6,59.3,30.04,NW,315,0.0,0.0,89,0.02,,CLR,0.32,VWS V12.08,2013-01-14 20:01:00,
2013-01-14 15:06:00,62.4,59.1,30.04,NW,315,0.0,0.0,89,0.04,,CLR,0.35,VWS V12.08,2013-01-14 20:06:00,
2013-01-14 15:11:00,62.4,59.1,30.04,NW,315,0.0,0.0,89,0.04,,CLR,0.35,VWS V12.08,2013-01-14 20:11:00,
2013-01-14 15:16:00,62.4,59.1,30.04,NW,315,0.0,0.0,89,0.04,,CLR,0.35,VWS V12.08,2013-01-14 20:16:00,
2013-01-14 15:21:00,62.4,59.1,30.04,NW,315,0.0,0.0,89,0.06,,CLR,0.37,VWS V12.08,2013-01-14 20:21:00,
2013-01-14 15:26:00,62.4,59.1,30.05,NW,315,0.0,0.0,89,0.09,,CLR,0.39,VWS V12.08,2013-01-14 20:26:00,
2013-01-14 15:31:00,62.4,59.1,30.05,NW,315,0.0,0.0,89,0.09,,CLR,0.39,VWS V12.08,2013-01-14 20:31:00,
2013-01-14 15:36:00,62.4,59.1,30.05,NW,315,0.0,0.0,89,0.06,,CLR,0.39,VWS V12.08,2013-01-14 20:36:00,
2013-01-14 15:41:00,62.4,59.1,30.05,NW,315,0.0,0.0,89,0.06,,CLR,0.39,VWS V12.08,2013-01-14 20:41:00,
2013-01-14 15:46:00,62.4,59.1,30.05,NW,315,0.0,0.0,89,0.06,,CLR,0.39,VWS V12.08,2013-01-14 20:46:00,
2013-01-14 15:51:00,62.4,59.1,30.05,NNW,338,0.0,0.0,89,0.06,,CLR,0.39,VWS V12.08,2013-01-14 20:51:00,
2013-01-14 15:56:00,62.6,59.3,30.06,East,90,0.0,0.0,89,0.06,,CLR,0.39,VWS V12.08,2013-01-14 20:56:00,
2013-01-14 16:01:00,62.8,59.5,30.06,SSW,202,0.0,0.0,89,0.04,,CLR,0.39,VWS V12.08,2013-01-14 21:01:00,
2013-01-14 16:06:00,62.8,59.5,30.06,SE,135,0.0,0.0,89,0.04,,CLR,0.39,VWS V12.08,2013-01-14 21:06:00,
2013-01-14 16:11:00,62.8,59.5,30.06,SSE,158,0.0,0.0,89,0.04,,CLR,0.39,VWS V12.08,2013-01-14 21:11:00,
2013-01-14 16:16:00,62.8,59.5,30.06,SSE,158,0.0,0.0,89,0.04,,CLR,0.39,VWS V12.08,2013-01-14 21:16:00,
2013-01-14 16:21:00,62.6,59.3,30.06,SE,135,0.0,0.0,89,0.04,,CLR,0.43,VWS V12.08,2013-01-14 21:21:00,
2013-01-14 16:26:00,62.6,59.3,30.06,SE,135,0.0,0.0,89,0.04,,CLR,0.43,VWS V12.08,2013-01-14 21:26:00,
2013-01-14 16:32:00,62.6,59.3,30.06,SE,135,0.0,0.0,89,0.04,,CLR,0.43,VWS V12.08,2013-01-14 21:32:00,
2013-01-14 16:36:00,62.6,59.3,30.06,SSE,158,0.0,0.0,89,0.04,,CLR,0.43,VWS V12.08,2013-01-14 21:36:00,
2013-01-14 16:41:00,62.6,59.3,30.06,SSE,158,0.0,0.0,89,0.09,,CLR,0.48,VWS V12.08,2013-01-14 21:41:00,
2013-01-14 16:47:00,62.6,59.3,30.07,SE,135,0.0,0.0,89,0.09,,CLR,0.48,VWS V12.08,2013-01-14 21:47:00,
2013-01-14 16:51:00,62.6,59.3,30.07,SSE,158,0.0,2.2,89,0.09,,CLR,0.48,VWS V12.08,2013-01-14 21:51:00,
2013-01-14 16:56:00,62.6,59.3,30.07,SSE,158,0.0,2.2,89,0.09,,CLR,0.48,VWS V12.08,2013-01-14 21:56:00,
2013-01-14 17:02:00,62.4,59.1,30.07,SE,135,0.0,0.0,89,0.09,,CLR,0.48,VWS V12.08,2013-01-14 22:02:00,
2013-01-14 17:07:00,62.4,59.1,30.07,SE,135,0.0,0.0,89,0.09,,CLR,0.48,VWS V12.08,2013-01-14 22:07:00,
2013-01-14 17:12:00,62.6,59.3,30.07,SSE,158,3.1,3.1,89,0.09,,CLR,0.48,VWS V12.08,2013-01-14 22:12:00,
2013-01-14 17:17:00,62.4,59.1,30.07,SE,135,0.0,5.8,89,0.04,,CLR,0.48,VWS V12.08,2013-01-14 22:17:00,
2013-01-14 17:22:00,62.4,59.1,30.07,SE,135,0.0,0.0,89,0.04,,CLR,0.48,VWS V12.08,2013-01-14 22:22:00,
2013-01-14 17:27:00,62.4,59.1,30.07,SE,135,0.0,0.0,89,0.04,,CLR,0.48,VWS V12.08,2013-01-14 22:27:00,
2013-01-14 17:32:00,62.4,59.1,30.07,SE,135,0.0,0.0,89,0.04,,CLR,0.48,VWS V12.08,2013-01-14 22:32:00,
2013-01-14 17:37:00,62.4,59.1,30.07,SE,135,1.1,1.6,89,0.04,,CLR,0.48,VWS V12.08,2013-01-14 22:37:00,
2013-01-14 17:42:00,62.2,59.0,30.07,SE,135,0.0,0.0,89,0.00,,CLR,0.48,VWS V12.08,2013-01-14 22:42:00,
2013-01-14 17:47:00,62.2,59.0,30.07,South,180,4.0,4.0,89,0.00,,CLR,0.48,VWS V12.08,2013-01-14 22:47:00,
2013-01-14 17:52:00,62.2,59.0,30.07,ESE,112,0.0,4.0,89,0.02,,CLR,0.50,VWS V12.08,2013-01-14 22:52:00,
2013-01-14 17:57:00,62.2,59.0,30.08,SSE,158,0.0,4.0,89,0.02,,CLR,0.50,VWS V12.08,2013-01-14 22:57:00,
2013-01-14 18:02:00,62.2,59.0,30.07,SE,135,0.0,0.0,89,0.02,,CLR,0.50,VWS V12.08,2013-01-14 23:02:00,
2013-01-14 18:07:00,62.1,58.8,30.07,SE,135,0.0,0.0,89,0.02,,CLR,0.50,VWS V12.08,2013-01-14 23:07:00,
2013-01-14 18:12:00,62.1,58.8,30.07,SSE,158,0.0,0.0,89,0.02,,CLR,0.50,VWS V12.08,2013-01-14 23:12:00,
2013-01-14 18:17:00,62.1,58.8,30.07,SSE,158,0.0,0.0,89,0.02,,CLR,0.50,VWS V12.08,2013-01-14 23:17:00,
2013-01-14 18:22:00,61.9,58.6,30.08,South,180,0.0,0.0,89,0.02,,CLR,0.50,VWS V12.08,2013-01-14 23:22:00,
2013-01-14 18:27:00,61.9,58.6,30.08,SE,135,0.0,0.0,89,0.02,,CLR,0.50,VWS V12.08,2013-01-14 23:27:00,
2013-01-14 18:32:00,62.1,58.8,30.08,SE,135,0.0,0.0,89,0.02,,CLR,0.50,VWS V12.08,2013-01-14 23:32:00,
2013-01-14 18:37:00,61.9,58.6,30.08,SE,135,0.0,0.0,89,0.02,,CLR,0.50,VWS V12.08,2013-01-14 23:37:00,
2013-01-14 18:42:00,61.9,58.6,30.08,SSE,158,0.0,0.0,89,0.02,,CLR,0.50,VWS V12.08,2013-01-14 23:42:00,
2013-01-14 18:47:00,61.9,58.6,30.08,SW,225,0.0,0.0,89,0.00,,CLR,0.50,VWS V12.08,2013-01-14 23:47:00,
2013-01-14 18:52:00,61.9,58.9,30.08,SW,225,0.0,0.0,90,0.00,,CLR,0.50,VWS V12.08,2013-01-14 23:52:00,
2013-01-14 18:57:00,61.9,58.9,30.08,SW,225,0.0,0.0,90,0.00,,CLR,0.50,VWS V12.08,2013-01-14 23:57:00,
2013-01-14 19:02:00,61.9,58.9,30.08,SW,225,0.0,0.0,90,0.00,,CLR,0.50,VWS V12.08,2013-01-15 00:02:00,
2013-01-14 19:07:00,61.9,58.9,30.08,SE,135,0.0,0.0,90,0.00,,CLR,0.50,VWS V12.08,2013-01-15 00:07:00,
2013-01-14 19:12:00,61.9,58.9,30.08,SE,135,0.0,0.0,90,0.00,,CLR,0.50,VWS V12.08,2013-01-15 00:12:00,
2013-01-14 19:17:00,61.9,58.9,30.08,SE,135,0.0,0.0,90,0.00,,CLR,0.50,VWS V12.08,2013-01-15 00:17:00,
2013-01-14 19:22:00,62.1,59.1,30.07,SE,135,0.0,0.0,90,0.00,,CLR,0.50,VWS V12.08,2013-01-15 00:22:00,
2013-01-14 19:27:00,62.1,59.1,30.07,SE,135,0.0,0.0,90,0.00,,CLR,0.50,VWS V12.08,2013-01-15 00:27:00,
2013-01-14 19:32:00,62.1,59.1,30.08,SE,135,0.0,0.0,90,0.00,,CLR,0.50,VWS V12.08,2013-01-15 00:32:00,
2013-01-14 19:37:00,62.1,59.1,30.08,SE,135,0.0,0.0,90,0.00,,CLR,0.50,VWS V12.08,2013-01-15 00:37:00,
2013-01-14 19:42:00,62.1,59.1,30.08,SE,135,0.0,0.0,90,0.00,,CLR,0.50,VWS V12.08,2013-01-15 00:42:00,
2013-01-14 19:47:00,62.1,59.1,30.08,SE,135,0.0,0.0,90,0.00,,CLR,0.50,VWS V12.08,2013-01-15 00:47:00,
2013-01-14 19:52:00,61.9,58.9,30.07,SE,135,0.0,0.0,90,0.00,,CLR,0.50,VWS V12.08,2013-01-15 00:52:00,
2013-01-14 19:57:00,61.9,58.9,30.08,SE,135,0.0,0.0,90,0.00,,CLR,0.50,VWS V12.08,2013-01-15 00:57:00,
2013-01-14 20:02:00,62.1,59.1,30.08,SSW,202,0.0,0.0,90,0.00,,CLR,0.50,VWS V12.08,2013-01-15 01:02:00,
2013-01-14 20:07:00,62.2,59.3,30.07,East,90,0.0,0.0,90,0.00,,CLR,0.50,VWS V12.08,2013-01-15 01:07:00,
2013-01-14 20:12:00,62.2,59.3,30.07,ENE,68,0.0,0.0,90,0.00,,CLR,0.50,VWS V12.08,2013-01-15 01:12:00,
2013-01-14 20:17:00,62.2,59.3,30.07,South,180,0.0,0.0,90,0.00,,CLR,0.50,VWS V12.08,2013-01-15 01:17:00,
2013-01-14 20:22:00,62.2,59.3,30.07,South,180,0.0,0.0,90,0.00,,CLR,0.50,VWS V12.08,2013-01-15 01:22:00,
2013-01-14 20:27:00,62.4,59.5,30.07,South,180,0.0,0.0,90,0.00,,CLR,0.50,VWS V12.08,2013-01-15 01:27:00,
2013-01-14 20:32:00,62.4,59.5,30.07,WSW,248,0.0,0.0,90,0.00,,CLR,0.50,VWS V12.08,2013-01-15 01:32:00,
2013-01-14 20:37:00,62.6,59.6,30.07,West,270,0.0,0.0,90,0.00,,CLR,0.50,VWS V12.08,2013-01-15 01:37:00,
2013-01-14 20:42:00,62.6,59.6,30.07,West,270,0.0,0.0,90,0.00,,CLR,0.50,VWS V12.08,2013-01-15 01:42:00,
2013-01-14 20:47:00,62.6,59.6,30.07,West,270,0.0,0.0,90,0.00,,CLR,0.50,VWS V12.08,2013-01-15 01:47:00,
2013-01-14 20:52:00,62.4,59.5,30.06,West,270,0.0,0.0,90,0.00,,CLR,0.50,VWS V12.08,2013-01-15 01:52:00,
2013-01-14 20:57:00,62.2,59.3,30.08,West,270,0.0,0.0,90,0.00,,CLR,0.50,VWS V12.08,2013-01-15 01:57:00,
2013-01-14 21:02:00,62.2,59.3,30.07,West,270,0.0,0.0,90,0.00,,CLR,0.50,VWS V12.08,2013-01-15 02:02:00,
2013-01-14 21:07:00,61.9,58.9,30.08,SSE,158,0.0,0.0,90,0.02,,CLR,0.52,VWS V12.08,2013-01-15 02:07:00,
2013-01-14 21:12:00,61.9,58.9,30.07,SSE,158,0.0,0.0,90,0.11,,CLR,0.61,VWS V12.08,2013-01-15 02:12:00,
2013-01-14 21:17:00,61.7,58.7,30.07,SSE,158,0.0,0.0,90,0.13,,CLR,0.63,VWS V12.08,2013-01-15 02:17:00,
2013-01-14 21:22:00,61.5,58.6,30.07,SSE,158,0.0,0.0,90,0.13,,CLR,0.63,VWS V12.08,2013-01-15 02:22:00,
2013-01-14 21:27:00,61.5,58.6,30.07,SSE,158,0.0,0.0,90,0.13,,CLR,0.63,VWS V12.08,2013-01-15 02:27:00,
2013-01-14 21:32:00,61.5,58.6,30.07,SSE,158,0.0,0.0,90,0.13,,CLR,0.63,VWS V12.08,2013-01-15 02:32:00,
2013-01-14 21:37:00,61.5,58.6,30.07,WNW,292,0.0,0.0,90,0.13,,CLR,0.63,VWS V12.08,2013-01-15 02:37:00,
2013-01-14 21:42:00,61.5,58.6,30.07,WNW,292,0.0,0.0,90,0.13,,CLR,0.63,VWS V12.08,2013-01-15 02:42:00,
2013-01-14 21:47:00,61.3,58.4,30.06,WNW,292,0.0,0.0,90,0.13,,CLR,0.63,VWS V12.08,2013-01-15 02:47:00,
2013-01-14 21:52:00,61.3,58.4,30.07,WSW,248,0.0,0.0,90,0.13,,CLR,0.63,VWS V12.08,2013-01-15 02:52:00,
2013-01-14 21:57:00,61.2,58.2,30.07,WSW,248,0.0,0.0,90,0.13,,CLR,0.63,VWS V12.08,2013-01-15 02:57:00,
2013-01-14 22:02:00,61.2,58.2,30.07,WSW,248,0.0,0.0,90,0.13,,CLR,0.63,VWS V12.08,2013-01-15 03:02:00,
2013-01-14 22:07:00,61.2,58.2,30.07,WSW,248,0.0,0.0,90,0.11,,CLR,0.63,VWS V12.08,2013-01-15 03:07:00,
2013-01-14 22:12:00,61.2,58.2,30.07,NNE,22,0.0,0.0,90,0.00,,CLR,0.63,VWS V12.08,2013-01-15 03:12:00,
2013-01-14 22:17:00,61.2,58.2,30.09,West,270,0.0,1.6,90,0.02,,CLR,0.65,VWS V12.08,2013-01-15 03:17:00,
2013-01-14 22:22:00,61.2,58.2,30.09,West,270,0.0,3.1,90,0.06,,CLR,0.69,VWS V12.08,2013-01-15 03:22:00,
2013-01-14 22:27:00,61.2,58.2,30.08,West,270,0.0,3.1,90,0.09,,CLR,0.71,VWS V12.08,2013-01-15 03:27:00,
2013-01-14 22:32:00,61.0,58.0,30.09,West,270,0.0,3.1,90,0.11,,CLR,0.73,VWS V12.08,2013-01-15 03:32:00,
2013-01-14 22:37:00,61.0,58.0,30.09,West,270,0.0,3.1,90,0.13,,CLR,0.76,VWS V12.08,2013-01-15 03:37:00,
2013-01-14 22:42:00,60.8,57.8,30.10,North,0,7.6,7.6,90,0.15,,CLR,0.78,VWS V12.08,2013-01-15 03:42:00,
2013-01-14 22:47:00,60.6,57.7,30.11,NNW,338,0.0,7.6,90,0.15,,CLR,0.78,VWS V12.08,2013-01-15 03:47:00,
2013-01-14 22:52:00,59.7,56.8,30.11,WNW,292,0.0,7.6,90,0.17,,CLR,0.80,VWS V12.08,2013-01-15 03:52:00,
2013-01-14 22:57:00,59.5,56.6,30.11,WSW,248,0.0,7.6,90,0.19,,CLR,0.82,VWS V12.08,2013-01-15 03:57:00,
2013-01-14 23:02:00,58.8,55.6,30.11,WNW,292,1.6,1.6,89,0.19,,CLR,0.82,VWS V12.08,2013-01-15 04:02:00,
2013-01-14 23:07:00,58.8,55.6,30.11,WNW,292,2.0,2.0,89,0.22,,CLR,0.84,VWS V12.08,2013-01-15 04:07:00,
2013-01-14 23:12:00,58.8,55.6,30.11,NW,315,0.0,2.0,89,0.22,,CLR,0.84,VWS V12.08,2013-01-15 04:12:00,
2013-01-14 23:17:00,58.3,55.1,30.11,NW,315,0.0,2.0,89,0.19,,CLR,0.86,VWS V12.08,2013-01-15 04:17:00,
2013-01-14 23:22:00,57.9,54.7,30.11,NW,315,0.0,0.0,89,0.15,,CLR,0.86,VWS V12.08,2013-01-15 04:22:00,
2013-01-14 23:27:00,57.9,54.7,30.11,West,270,0.0,0.0,89,0.15,,CLR,0.86,VWS V12.08,2013-01-15 04:27:00,
2013-01-14 23:32:00,57.6,54.3,30.12,NNW,338,3.8,3.8,89,0.13,,CLR,0.86,VWS V12.08,2013-01-15 04:32:00,
2013-01-14 23:37:00,57.0,53.8,30.12,North,0,0.0,3.8,89,0.09,,CLR,0.86,VWS V12.08,2013-01-15 04:37:00,
2013-01-14 23:42:00,57.0,53.8,30.12,North,0,0.0,0.0,89,0.11,,CLR,0.89,VWS V12.08,2013-01-15 04:42:00,
2013-01-14 23:47:00,56.8,53.6,30.12,NNW,338,0.0,0.0,89,0.09,,CLR,0.89,VWS V12.08,2013-01-15 04:47:00,
2013-01-14 23:52:00,56.5,53.3,30.12,NNW,338,0.0,0.0,89,0.06,,CLR,0.89,VWS V12.08,2013-01-15 04:52:00,
2013-01-14 23:57:00,56.1,52.9,30.11,NNW,338,0.0,0.0,89,0.06,,CLR,0.89,VWS V12.08,2013-01-15 04:57:00,